www.pogodaiklimat.ru

Погода и климат >> Архив погоды >> Германия >> Биндерслебен


ПОГОДА в Биндерслебене

  • Прогноз погоды в Биндерслебене
  • Монитор погоды в Биндерслебене

АРХИВ ПОГОДЫ в Биндерслебене

Время (UTC), дата Ветер
(напр.,м/с)
 
Видим.   Явления Облачность Т
(С)
Тd
(С)
f
(%)
Тe
(С)
Тes
(С)
Комфортность P
(гПа)
Po
(гПа)
Тmin
(С)
Tmax
(С)
R
(мм)
R24
(мм)
S
(см)
19 18.08 ЮЗ 5 40 км в посл. час гроза {ливн. осадки} 9/1 1500 м
[Cu med, cong Ac As]
+19.3 +17.1 87 +21 +21 комфорт 1008.5 971.7
20 18.08 З 3 50 км в посл. час ливневой дождь 9/5 1500 м
[Cu med, cong Ac As Cs]
+18.5 +16.6 89 +19 +19 1009.0 972.1
21 18.08 ЮЗ 1 50 км {гроза, ливн. осадки} 9/9 600 м
[Sc]
+18.9 +16.6 87 +21 +21 комфорт 1010.2 973.3 2
22 18.08 СЗ 1-2
{3}
50 км 10/9 800 м
[Sc]
+18.4 +16.8 90 +20 +20 1010.8 973.8
23 18.08 штиль 0-1
{2}
50 км 10/9 700 м
[Sc]
+18.1 +16.8 92 +18 +18 1011.3 974.2
00 19.08 С 2 40 км {гроза, ливн. осадки} 10/9 300 м
[Sc]
+17.5 +15.5 88 +18 +18 1011.5 974.3 2
01 19.08 СЗ 2-3
{4}
40 км 10/9 420 м
[Sc]
+16.9 +14.4 85 +17 +17 1012.8 975.5
02 19.08 З 2-3
{3}
40 км 10/9 480 м
[Sc]
+16.4 +14.6 89 +16 +16 1013.2 975.8
03 19.08 СЗ 2 40 км 10/3 1380 м
[Sc Ac As]
+16.1 +14.5 90 +16 +16 1013.6 976.2
04 19.08 ЮЗ 2 40 км 10/4 600 м
[Cu med, cong As op]
+16.3 +14.1 87 +16 +16 1014.0 976.6
05 19.08 З 3 60 км 8/4 1500 м
[Sc Ac As Ci sp]
+15.2 +13.6 90 +14 +15 1014.8 977.2
06 19.08 ЮЗ 4 60 км 8/0
[Ac As Cs]
+15.8 +13.4 86 +15 +16 1015.2 977.6 +15.1 +23.3 2
07 19.08 З 5-7
{7}
60 км 5/0
[Cs]
+16.2 +12.9 81 +15 +17 1015.3 977.8
08 19.08 З 6 60 км 5/1 700 м
[Cu med, cong Ac cast Cs]
+18.2 +11.4 64 +18 +20 1015.7 978.4
09 19.08 ЮЗ 5 70 км 4/3 800 м
[Cu Sc Ac cast Cs]
+19.7 +10.5 55 +21 +24 комфорт 1015.8 978.7
10 19.08 З 6-7
{8}
>70 км 4/4 1300 м
[Cu med, cong Ac trans]
+20.3 +8.9 48 +21 +24 комфорт 1016.2 979.1
11 19.08 З 7-8
{10}
>70 км 6/6 1380 м
[Cu med, cong]
+21.8 +9.7 46 +23 +25 комфорт 1016.2 979.3
12 19.08 З 8 >70 км 6/6 1500 м
[Cu med, cong]
+22.6 +9.1 42 +24 +25 комфорт 1016.2 979.4
13 19.08 З 7-11
{13}
>70 км 5/5 1500 м
[Sc diur, vesp]
+22.5 +7.5 38 +23 +25 комфорт 1016.3 979.5
14 19.08 ЮЗ 7-10
{11}
>70 км 5/5 1500 м
[Sc]
+23.3 +7.6 36 +24 +25 комфорт 1016.7 979.9
15 19.08 З 5 >70 км 5/5 2000 м
[Sc]
+23.4 +7.3 36 +24 +26 комфорт 1016.9 980.1
16 19.08 З 4-7
{8}
>70 км 4/4 2000 м
[Sc]
+23.0 +7.8 38 +24 +25 комфорт 1016.8 980.0
17 19.08 З 4-6
{8}
>70 км 6/6 2000 м
[Sc]
+21.3 +8.1 43 +22 +23 комфорт 1017.4 980.4
18 19.08 З 3 >70 км 6/0
[Ac trans Ci fib]
+20.1 +8.5 47 +22 +22 комфорт 1017.8 980.6 +15.7 +24.0
19 19.08 З 2-2
{4}
>70 км 5/0
[Ac cast Ci fib]
+19.2 +8.5 50 +21 +21 комфорт 1018.4 981.1
20 19.08 З 2-3
{3}
>70 км 4/0
[Ac trans Ci]
+18.0 +8.5 54 +19 +19 1018.9 981.4
21 19.08 ЮЗ 2 >70 км 5/0
[Ci]
+16.4 +9.1 62 +17 +17 1019.2 981.5
22 19.08 Ю 3-3
{4}
>70 км 5/0
[Ci fib]
+15.4 +9.4 67 +15 +15 1019.8 982.0
23 19.08 Ю 3 60 км 8/0
[Ac trans Cs]
+14.8 +9.8 72 +14 +14 1020.3 982.4
00 20.08 ЮЗ 3 60 км 8/0
[Cs]
+13.9 +9.7 76 +13 +13 1020.5 982.5
01 20.08 Ю 3 60 км 8/0
[Ac und Cs]
+12.7 +9.7 82 +11 +11 1020.8 982.6
02 20.08 ЮЗ 4 60 км 5/0
[Ac trans Ci fib]
+11.5 +9.2 86 +9 +9 1020.9 982.5
03 20.08 ЮЗ 4 50 км 8/0
[Ac trans Ci]
+10.7 +9.0 89 +8 +8 1021.1 982.6
04 20.08 ЮЗ 3 50 км 8/0
[Ac trans Ci fib]
+10.4 +8.8 90 +8 +8 1021.4 982.9
05 20.08 ЮЗ 4 70 км 8/3 2000 м
[Sc Ac cast Ci]
+10.9 +8.9 87 +8 +9 1021.6 983.1
06 20.08 ЮЗ 4 70 км 6/4 1500 м
[Sc Ac cast Cs]
+13.4 +10.0 80 +12 +12 1021.8 983.6 +10.3 +20.0
07 20.08 З 4 70 км 8/3 2000 м
[Sc Ac cast Cs]
+15.4 +11.3 77 +14 +16 1021.9 984.0
08 20.08 З 2 >70 км 9/0
[Ac cast Cs]
+18.1 +9.8 58 +19 +24 1021.7 984.1
09 20.08 С 2 70 км 10/5 2000 м
[Sc Ac cast Cs]
+18.6 +8.4 51 +20 +22 1022.1 984.6
10 20.08 СЗ 2 70 км 10/3 1500 м
[Sc Ac cast Cs]
+19.5 +9.0 51 +21 +25 комфорт 1022.0 984.6
11 20.08 З 3 >70 км 10/3 1500 м
[Sc Ac As]
+20.1 +9.1 49 +22 +24 комфорт 1022.0 984.7
12 20.08 СЗ 3 70 км 9/3 1500 м
[Sc Ac As]
+20.5 +9.1 48 +22 +25 комфорт 1021.9 984.6
13 20.08 З 2-4
{5}
70 км 10/9 1500 м
[Sc]
+20.5 +9.2 48 +23 +23 комфорт 1021.8 984.5
14 20.08 З 3-5
{5}
>70 км 10/9 1500 м
[Sc]
+20.4 +8.4 46 +22 +22 комфорт 1021.7 984.4
15 20.08 СЗ 3 >70 км 10/9 1500 м
[Sc]
+19.8 +6.6 42 +21 +21 комфорт 1022.2 984.8
16 20.08 З 2 50 км слаб. дождь 10/9 1300 м
[Cu Sc]
+18.4 +9.9 58 +19 +19 1022.8 985.2
17 20.08 ЮЗ 2 50 км слаб. дождь 10/9 1050 м
[Sc]
+16.6 +12.1 75 +17 +17 1023.4 985.6
18 20.08 Ю 3 >70 км в посл. час дождь 10/9 1000 м
[Sc]
+15.7 +12.1 79 +15 +15 1023.7 985.8 +13.4 +21.0 0.2
19 20.08 Ю 3-4
{4}
>70 км 9/9 1500 м
[Sc]
+15.3 +11.9 80 +15 +15 1024.3 986.3
20 20.08 Ю 3 70 км 9/8 1380 м
[Sc Ac As]
+14.6 +11.4 81 +14 +14 1024.9 986.8
21 20.08 ЮЗ 4 70 км 9/5 1380 м
[Sc Ac As]
+14.1 +11.4 84 +13 +13 1025.4 987.2
22 20.08 ЮЗ 3 60 км 9/0
[As trans Cs]
+13.0 +10.1 83 +12 +12 1025.8 987.4
23 20.08 З 4 60 км 9/0
[Ac As Cs]
+12.7 +9.3 80 +11 +11 1026.0 987.6
00 21.08 З 4 60 км 9/5 1500 м
[Sc Ac trans Cs]
+12.0 +8.3 78 +10 +10 1026.4 987.9
01 21.08 З 4-5
{5}
50 км 3/1 1500 м
[Sc Ac trans Ci fib]
+11.0 +7.8 81 +9 +9 1027.1 988.4
02 21.08 З 4-5
{5}
50 км 1/0
[Ac trans]
+9.4 +6.9 84 +7 +7 1027.7 988.8
03 21.08 З 4-5
{5}
50 км ясно +9.6 +7.2 85 +7 +7 1027.8 988.9
04 21.08 З 4-4
{5}
50 км 1/0
[Ac trans]
+10.4 +7.6 83 +8 +8 1028.3 989.5
05 21.08 ЮЗ 4-4
{4}
50 км 1/0
[Ac trans]
+9.5 +7.5 87 +7 +7 1029.0 990.0
06 21.08 ЮЗ 3 50 км ясно +11.7 +8.7 82 +10 +11 1029.1 990.4 +9.1 +15.8
07 21.08 ЮЗ 3-4
{4}
50 км ясно +14.0 +9.7 75 +13 +16 1028.9 990.6
08 21.08 З 2-4
{4}
45 км ясно +16.9 +10.0 64 +17 +24 1028.8 990.8
09 21.08 С 2 45 км 1/1 930 м
[Cu hum]
+18.8 +10.0 57 +20 +29 1028.6 990.9
10 21.08 В 1-3
{4}
45 км 4/4 1140 м
[Cu med, cong]
+19.8 +7.9 46 +22 +30 комфорт 1028.4 990.8
11 21.08 СЗ 2-4
{8}
50 км 4/4 1380 м
[Cu med, cong]
+20.3 +6.7 41 +22 +30 комфорт 1028.0 990.5
12 21.08 СЗ 2 50 км 4/4 1500 м
[Cu med, cong]
+20.5 +5.8 38 +22 +30 комфорт 1027.9 990.4
13 21.08 СЗ 2-5
{5}
60 км 4/4 1500 м
[Cu med, cong]
+21.3 +5.0 34 +22 +28 комфорт 1027.3 989.9
14 21.08 С 3-5
{5}
60 км 4/4 2000 м
[Sc diur, vesp]
+22.5 +4.7 31 +23 +27 комфорт 1027.1 989.8
15 21.08 СВ 2 60 км 3/3 2000 м
[Sc diur, vesp]
+21.9 +5.0 33 +22 +26 комфорт 1027.0 989.7
16 21.08 С 2-4
{4}
60 км 3/1 2000 м
[Sc diur, vesp Ci]
+21.8 +3.7 30 +22 +24 комфорт 1027.1 989.7
17 21.08 С 1 60 км 8/1 2000 м
[Sc diur, vesp Ci]
+21.3 +4.4 33 +22 +22 комфорт 1026.6 989.2
18 21.08 С 2 60 км 8/0
[Cs]
+19.7 +5.2 39 +21 +21 комфорт 1026.9 989.3 +11.7 +22.6
19 21.08 СВ 1 60 км 8/0
[Ac und Cs]
+18.8 +5.4 41 +20 +20 1027.5 989.8
20 21.08 СВ 2-2
{3}
50 км 8/0
[Cs]
+18.0 +6.1 46 +19 +19 1027.8 990.0
21 21.08 СВ 2 50 км 8/0
[Cs]
+17.7 +5.9 46 +18 +18 1027.9 990.0
22 21.08 СВ 2-3
{3}
50 км 8/0
[Cs]
+16.4 +6.2 51 +17 +17 1028.3 990.2
23 21.08 СВ 1-2
{3}
50 км 8/0
[Cs]
+15.2 +6.2 55 +16 +16 1028.4 990.2
00 22.08 ЮЗ 1 50 км 8/0
[Cs]
+12.7 +7.2 69 +13 +13 1028.4 989.9
01 22.08 Ю 1-2
{3}
50 км 8/0
[Cs]
+11.9 +7.2 73 +12 +12 1028.3 989.7
02 22.08 ЮЗ 2-2
{3}
50 км 8/0
[Cs]
+11.5 +7.2 75 +10 +10 1028.5 989.8
03 22.08 ЮЗ 2 50 км 8/0
[Cs]
+9.7 +6.8 82 +8 +8 1028.4 989.5
04 22.08 Ю 2-3
{3}
40 км 1/0
[Ci sp]
+8.2 +6.0 86 +6 +6 1028.5 989.4
05 22.08 ЮЗ 2-2
{3}
60 км ясно +10.5 +6.6 77 +9 +9 1028.4 989.6
06 22.08 Ю 2 60 км ясно +12.3 +7.5 72 +11 +13 1028.4 989.8 +8.0 +19.7
07 22.08 З 1-1
{2}
50 км ясно +16.5 +8.2 58 +17 +22 1027.9 989.9
08 22.08 СВ 2-3
{3}
50 км ясно +18.0 +8.6 54 +19 +25 1027.8 990.0
09 22.08 В 2 60 км 1/1 1300 м
[Cu hum]
+20.6 +9.1 48 +23 +31 комфорт 1027.4 989.9
10 22.08 СВ 2-5
{5}
60 км 1/1 1500 м
[Cu hum]
+21.6 +7.3 40 +23 +33 комфорт 1026.8 989.5
11 22.08 СВ 3-6
{7}
70 км 1/1 1500 м
[Cu hum]
+22.9 +7.0 36 +24 +33 комфорт 1026.0 988.9
12 22.08 В 3 70 км 1/0
[Ci]
+23.5 +6.6 34 +24 +34 комфорт 1025.5 988.4
13 22.08 В 4-6
{6}
70 км 1/0
[Ci fib]
+24.0 +5.2 30 +24 +31 комфорт 1025.2 988.2
14 22.08 СВ 3-6
{6}
70 км 1/0
[Ci fib]
+24.5 +5.5 29 +24 +31 комфорт 1024.5 987.6
15 22.08 СЗ 1 70 км 1/0
[Ci fib]
+25.0 +5.1 28 +25 +31 комфорт 1024.2 987.4
16 22.08 СВ 2-4
{5}
70 км 1/0
[Ci fib]
+25.0 +4.4 26 +24 +27 комфорт 1024.0 987.2
17 22.08 СВ 2-4
{5}
70 км 1/0
[Ci fib]
+24.1 +4.6 28 +24 +25 комфорт 1024.1 987.1
18 22.08 СВ 2 70 км 1/0
[Ci fib]
+22.4 +4.9 32 +23 +23 комфорт 1024.4 987.2 +12.4 +25.7
19 22.08 СВ 1-3
{3}
70 км 1/0
[Ci fib]
+21.2 +5.5 36 +22 +22 комфорт 1025.0 987.7
20 22.08 В 2-3
{3}
60 км ясно +19.9 +7.1 43 +21 +21 комфорт 1025.5 988.0
21 22.08 Ю 3-3
{4}
60 км ясно +17.4 +7.3 51 +17 +17 1026.0 988.2
22 22.08 Ю 4-4
{5}
60 км ясно +16.5 +7.4 55 +16 +16 1026.1 988.2
23 22.08 ЮЗ 3-3
{4}
60 км ясно +14.4 +7.3 62 +14 +14 1026.6 988.4
00 23.08 ЮЗ 3 60 км ясно +13.6 +7.4 66 +13 +13 1026.5 988.2
01 23.08 ЮЗ 3-4
{4}
60 км ясно +12.7 +7.4 70 +11 +11 1026.6 988.1
02 23.08 ЮЗ 3-3
{4}
60 км ясно +11.2 +7.2 76 +9 +9 1026.7 988.0
03 23.08 ЮЗ 2-3
{4}
60 км ясно +11.2 +7.0 75 +10 +10 1026.8 988.1
04 23.08 ЮЗ 3-3
{4}
60 км ясно +10.9 +7.0 77 +9 +9 1027.1 988.4
05 23.08 ЮЗ 3-3
{3}
60 км ясно +10.2 +7.3 82 +8 +8 1027.3 988.5
06 23.08 ЮЗ 2 70 км ясно +12.4 +8.1 75 +12 +13 1027.3 988.8 +9.4 +22.4
07 23.08 З 2-3
{3}
70 км ясно +15.7 +8.6 63 +16 +19 1027.1 989.0
08 23.08 З 1-2
{3}
70 км ясно +19.3 +8.6 50 +21 +29 комфорт 1026.7 989.1
09 23.08 СВ 2 70 км ясно +21.1 +8.0 43 +22 +32 комфорт 1026.6 989.2
10 23.08 СВ 3-7
{7}
>70 км ясно +23.4 +7.9 37 +24 +34 комфорт 1026.0 988.9
11 23.08 СВ 3-5
{7}
>70 км ясно +24.8 +7.4 33 +25 +36 комфорт 1025.3 988.4
12 23.08 В 3 >70 км ясно +25.3 +4.1 25 +24 +35 комфорт 1024.8 988.0
13 23.08 В 3-5
{10}
>70 км ясно +26.0 +5.1 26 +25 +34 комфорт 1024.2 987.5
14 23.08 СВ 3-7
{7}
>70 км ясно +27.1 +5.0 24 +26 +33 жарко 1023.6 987.0
15 23.08 СВ 3-7
{10}
>70 км ясно +27.2 +4.2 23 +26 +30 жарко 1023.3 986.7
16 23.08 СВ 4-7
{7}
>70 км ясно +27.1 +4.7 24 +26 +28 жарко 1023.1 986.5
17 23.08 СВ 3-5
{7}
>70 км ясно +26.2 +4.0 24 +25 +26 комфорт 1022.8 986.1
18 23.08 СВ 3 >70 км ясно +24.7 +3.7 26 +24 +24 комфорт 1022.9 986.1 +12.4 +27.8
19 23.08 В 2-2
{4}
>70 км ясно +23.5 +4.7 29 +23 +23 комфорт 1023.5 986.5
20 23.08 В 2-3
{3}
70 км ясно +22.0 +6.1 36 +23 +23 комфорт 1023.7 986.5
21 23.08 ЮВ 3-4
{4}
70 км ясно +20.1 +7.7 45 +21 +21 комфорт 1024.0 986.6
22 23.08 Ю 2-2
{4}
70 км ясно +18.1 +6.7 47 +19 +19 1024.2 986.5
23 23.08 Ю 2-3
{3}
70 км ясно +17.6 +7.2 50 +18 +18 1024.2 986.5
00 24.08 ЮЗ 1 70 км ясно +16.7 +7.5 55 +18 +18 1023.9 986.1
01 24.08 СЗ 1-1
{2}
70 км ясно +16.5 +7.3 54 +17 +17 1023.9 986.0
02 24.08 С 1-2
{2}
70 км ясно +16.2 +7.5 56 +17 +17 1023.9 986.0
03 24.08 ЮЗ 1-1
{2}
70 км ясно +13.3 +7.4 67 +14 +14 1024.2 985.9
04 24.08 ЮЗ 1-2
{2}
60 км ясно +11.8 +7.3 74 +12 +12 1024.2 985.7
05 24.08 Ю 2-2
{2}
50 км ясно +11.5 +7.1 74 +10 +11 1024.2 985.7
06 24.08 ЮЗ 1 50 км ясно +13.5 +8.2 70 +14 +16 1023.9 985.7 +11.1 +24.6
07 24.08 СВ 1-2
{2}
50 км ясно +17.6 +8.6 56 +19 +23 1023.5 985.8
08 24.08 СВ 2-3
{3}
40 км ясно +19.3 +9.6 53 +21 +27 комфорт 1023.3 985.8
09 24.08 СВ 3 40 км ясно +21.7 +11.4 52 +24 +32 комфорт 1022.9 985.8
10 24.08 СВ 4-6
{6}
40 км ясно +23.5 +12.0 48 +25 +33 комфорт 1022.3 985.4
11 24.08 В 4-6
{7}
50 км ясно +25.2 +12.2 44 +27 +35 жарко 1021.5 984.9
12 24.08 СВ 3 50 км 3/3 1500 м
[Cu hum]
+26.6 +12.9 43 +28 +35 жарко 1020.8 984.4 0.0
13 24.08 В 4-7
{8}
50 км 4/4 1500 м
[Cu hum]
+27.0 +13.8 44 +29 +33 жарко 1020.4 984.0
14 24.08 В 4 60 км 9/9 1500 м
[Cu Sc]
+26.7 +13.6 44 +29 +29 жарко 1020.1 983.7
15 24.08 В 4 50 км 8/8 1500 м
[Cu Sc]
+26.9 +13.8 44 +29 +30 жарко 1019.9 983.5
16 24.08 В 4-7
{8}
50 км 4/4 1500 м
[Cu Sc]
+27.2 +13.8 44 +29 +30 жарко 1019.4 983.1
17 24.08 В 3-6
{9}
50 км 1/1 1500 м
[Sc diur, vesp Ci sp]
+26.3 +13.6 45 +28 +29 жарко 1019.2 982.8
18 24.08 В 2 50 км 1/0
[Ac cast Ci sp]
+25.1 +14.3 51 +28 +28 жарко 1019.4 982.8 +13.7 +28.2
19 24.08 В 1-2
{3}
40 км 1/0
[Ci sp]
+24.3 +14.4 54 +27 +27 жарко 1019.7 983.0
20 24.08 В 1-2
{2}
40 км ясно +23.7 +14.3 56 +26 +26 жарко 1019.7 983.0
21 24.08 СВ 1-2
{3}
40 км ясно +22.7 +14.4 59 +26 +26 жарко 1019.8 982.9
22 24.08 В 1-2
{3}
45 км ясно +22.0 +14.2 61 +25 +25 комфорт 1019.7 982.8
23 24.08 СВ 2-2
{3}
40 км ясно +20.8 +14.0 65 +24 +24 комфорт 1019.9 982.8
00 25.08 С 2 40 км ясно +20.4 +14.0 67 +23 +23 комфорт 1019.7 982.6
01 25.08 С 3-3
{3}
40 км ясно +18.6 +13.4 72 +19 +19 1019.8 982.4
02 25.08 С 2-2
{3}
35 км 3/3 1200 м
[Sc]
+18.7 +13.8 73 +20 +20 1019.6 982.3
03 25.08 С 2-2
{3}
30 км ясно +17.8 +14.0 78 +18 +18 1019.7 982.2
04 25.08 Ю 1-2
{3}
20 км 1/1 1500 м
[Sc]
+15.5 +13.6 88 +16 +16 1020.0 982.2
05 25.08 ЮЗ 2-2
{2}
18 км 1/0
[Ac lent]
+15.3 +13.4 88 +15 +15 1020.3 982.5
06 25.08 З 1 18 км 3/3 1000 м
[Sc]
+17.2 +14.6 85 +18 +19 1019.9 982.4 +15.0 +25.0
07 25.08 В 2-2
{2}
20 км ясно +19.7 +14.2 71 +22 +26 комфорт 1020.0 982.8
08 25.08 СВ 2-3
{4}
20 км ясно +21.4 +14.8 66 +24 +31 комфорт 1019.7 982.7
09 25.08 СВ 2 20 км ясно +23.9 +15.4 59 +27 +36 жарко 1019.4 982.7
10 25.08 СВ 2-5
{5}
20 км 3/1 1500 м
[Cu med, cong Ci fib]
+26.8 +16.2 52 +30 +40 душно 1018.6 982.3
11 25.08 С 3-5
{6}
30 км 4/3 1380 м
[Cu med, cong Ci fib]
+28.0 +16.5 50 +32 +39 душно 1018.2 982.1
12 25.08 В 4 30 км 4/3 1500 м
[Cu med, cong Ci fib]
+28.8 +15.8 45 +32 +37 душно 1017.6 981.6
13 25.08 СВ 4-6
{7}
30 км 4/4 1500 м
[Cu med, cong Ci fib]
+30.1 +15.7 42 +33 +37 душно 1017.4 981.5
14 25.08 В 4 30 км 4/4 1500 м
[Cb calv Ci fib]
+29.7 +15.0 41 +32 +35 душно 1017.1 981.2
15 25.08 СВ 4 30 км 5/4 1500 м
[Cb calv Ci ing]
+30.3 +14.9 39 +32 +34 жарко 1016.4 980.6
17 25.08 В 2 40 км 8/4 1500 м
[Cb cap Ac cuf Ci ing]
+27.9 +13.5 41 +30 +30 жарко 1017.2 981.0
18 25.08 Ю 1 40 км 6/1 1500 м
[Cb cap Ac cuf Ci ing]
+25.7 +15.5 53 +29 +29 душно 1018.0 981.6 +17.3 +31.2

 

Местоположение метеостанции Биндерслебен (Германия): широта 50.98 долгота 10.97 высота над уровнем моря 323 м.

В архиве по умолчанию представлена погода в Биндерслебене за последнюю неделю. Архивные данные за месяц целиком и за предыдущие месяцы, начиная с января 2011 года, Вы можете получить, выбрав интересующий диапазон дат из раскрывающегося списка и нажав кнопку "Ввод!".


*Определитесь, кто Вы:
робот инопланетянин человек

Внимание! Время в таблицах - всемирное. Для получения местного времени необходимо прибавить поправку, которая равна 1 ч.

Смотрите также архив погоды в соседних городах и на ближайших метеорологических станциях:

Погода в Шмюкке (Германия) (39 км)
Погода в Айзенахе (Германия) (42 км)
Погода в Артерне (Германия) (50 км)
Погода в Нойхаусе (Германия) (55 км)
Погода в Майнингене (Германия) (62 км)
Погода в Лайнефельде-Ворбисе (Германия) (65 км)
Погода в Остерфельде (Германия) (68 км)
Погода в Шлайце (Германия) (75 км)
Погода в Харцгероде (Германия) (75 км)
Погода в Кобурге (Германия) (78 км)

Пояснения к столбцам:

Ветер - указаны скорость ветра в м/с - средняя за 10 мин, порывы в срок и между сроками (в фигурных скобках) и направление, откуда дует ветер: С - северный, СВ - северо-восточный, В - восточный, ЮВ - юго-восточный, Ю - южный, ЮЗ - юго-западный, З - западный, СЗ - северо-западный.
Видимость - горизонтальная дальность видимости в метрах или километрах. При видимости от 1 до 10 км при отсутствии осадков обычно наблюдается дымка, при ухудшении видимости до 1 км и менее - туман. В сухую погоду видимость может ухудшаться дымом, пылью или мглою.
Явления - указаны атмосферные явления, наблюдавшиеся в срок или в последний час перед сроком; фигурными скобками обозначены явления, наблюдавшиеся между сроками (за 1-3 часа до срока); квадратными скобками обозначены град или гололедные отложения с указанием их диаметра в мм.
Облачность - указаны через наклонную черту общая и нижняя облачность в баллах и высота нижней границы облаков в метрах; квадратными скобками обозначены формы облаков: Ci - перистые, Cs - перисто-слоистые, Cc - перисто-кучевые, Ac - высококучевые, As - высокослоистые, Sc - слоисто-кучевые, Ns - слоисто-дождевые, Cu - кучевые, Cb - кучево-дождевые. Подробнее классификацию облаков см. в Атласе облаков (PDF).
T - Температура воздуха - температура, измеренная на высоте 2 м над землей.
Td - Температура точки росы - температура, при понижении до которой содержащийся в воздухе водяной пар достигнет насыщения.
f - Относительная влажность воздуха - влажноcть воздуха, измеренная на высоте 2 м над землей.
Te - Эффективная температура - температура, которую ощущает одетый по сезону человек в тени. Характеристика душности погоды. При расчете учитывается влияние влажности воздуха и скорости ветра на теплоощущения человека.
Tes - Эффективная температура на солнце - температура, которую ощущает человек, с поправкой на солнечный нагрев. Характеристика знойности погоды. Зависит от высоты солнца над горизонтом, облачности и скорости ветра. Ночью, в пасмурную погоду, а также при ветре 12 м/с и более поправка равна нулю.
P - Атмосферное давление - приведенное к уровню моря атмосферное давление.
Po - Атмосферное давление - измеренное на уровне метеостанции атмосферное давление.
Tmin - Минимальная температура - минимум температуры воздуха на высоте 2 м над землей.
Tmax - Максимальная температура - максимум температуры воздуха на высоте 2 м над землей.
R - Количество осадков - Количество выпавших осадков за период времени, мм. При наведении курсора мыши на число - период времени, за который выпало указанное количество осадков.
R24 - Количество осадков - Количество выпавших осадков за 24 часа, мм.
S - Снежный покров - Высота снежного покрова, см. При наведении курсора мыши на число - состояние снежного покрова и степень покрытия местности в баллах.